When you browse on this site, cookies collect data to enhance your experience and personalize the content and advertising you see.
Visit our Privacy Policy to learn more. By continuing to use the site, you agree to this use of cookies and data.
  • In Hungary
  • List of Countries
  • For 7 days
  • Water Temperature
  • Weather Map
  • News
  • Weather Widgets
  • user-avatar
    Login

    Hourly Weather Sborovskiy

    Today, 7 June, Sunday

    Time Temperature Precipitation Wind Pressure Humidity
    00:00 +16°C° 0 mm 1 mps 751 mmHg 85%
    01:00 +14°C° 0 mm 0 mps 751 mmHg 85%
    02:00 +15°C° 0 mm 1 mps 751 mmHg 86%
    03:00 +15°C° 0 mm 1 mps 751 mmHg 86%
    04:00 +16°C° 0 mm 2 mps 751 mmHg 86%
    05:00 +17°C° 0 mm 2 mps 751 mmHg 84%
    06:00 +18°C° 0 mm 3 mps 751 mmHg 81%
    07:00 +19°C° 0 mm 4 mps 751 mmHg 79%
    08:00 +19°C° 0.4 mm 3 mps 751 mmHg 80%
    09:00 +19°C° 0.4 mm 3 mps 751 mmHg 81%
    10:00 +19°C° 0.4 mm 3 mps 751 mmHg 82%
    11:00 +19°C° 0.7 mm 3 mps 751 mmHg 82%
    12:00 +19°C° 0.7 mm 3 mps 751 mmHg 82%
    13:00 +19°C° 0.7 mm 3 mps 751 mmHg 83%
    14:00 +19°C° 0.2 mm 3 mps 751 mmHg 81%
    15:00 +20°C° 0.2 mm 3 mps 751 mmHg 79%
    16:00 +20°C° 0.2 mm 3 mps 751 mmHg 77%
    17:00 +20°C° 0.6 mm 3 mps 751 mmHg 80%
    18:00 +19°C° 0.6 mm 4 mps 751 mmHg 84%
    19:00 +19°C° 0.6 mm 4 mps 751 mmHg 87%
    20:00 +18°C° 0.9 mm 4 mps 751 mmHg 89%
    21:00 +17°C° 0.9 mm 4 mps 751 mmHg 92%
    22:00 +17°C° 0.9 mm 4 mps 751 mmHg 94%
    23:00 +16°C° 0.3 mm 3 mps 751 mmHg 95%

    Tomorrow, 8 June, Monday

    Time Temperature Precipitation Wind Pressure Humidity
    00:00 +16°C° 0.3 mm 3 mps 751 mmHg 96%
    01:00 +15°C° 0.3 mm 2 mps 751 mmHg 96%
    02:00 +15°C° 0.2 mm 2 mps 751 mmHg 96%
    03:00 +15°C° 0.2 mm 2 mps 751 mmHg 96%
    04:00 +15°C° 0.2 mm 2 mps 751 mmHg 96%
    05:00 +16°C° 0.5 mm 2 mps 751 mmHg 94%
    06:00 +17°C° 0.5 mm 3 mps 751 mmHg 91%
    07:00 +18°C° 0.5 mm 3 mps 751 mmHg 88%
    08:00 +19°C° 1.4 mm 3 mps 751 mmHg 83%
    09:00 +20°C° 1.4 mm 3 mps 751 mmHg 78%
    10:00 +21°C° 1.4 mm 3 mps 752 mmHg 72%
    11:00 +22°C° 1.9 mm 4 mps 752 mmHg 70%
    12:00 +22°C° 1.9 mm 5 mps 752 mmHg 67%
    13:00 +23°C° 1.9 mm 6 mps 752 mmHg 65%
    14:00 +23°C° 0.6 mm 5 mps 751 mmHg 65%
    15:00 +23°C° 0.6 mm 4 mps 751 mmHg 66%
    16:00 +23°C° 0.6 mm 4 mps 751 mmHg 66%
    17:00 +23°C° 0.2 mm 4 mps 751 mmHg 67%
    18:00 +22°C° 0.2 mm 3 mps 751 mmHg 67%
    19:00 +22°C° 0.2 mm 3 mps 751 mmHg 68%
    20:00 +20°C° 0.1 mm 3 mps 751 mmHg 68%
    21:00 +19°C° 0.1 mm 3 mps 751 mmHg 69%
    22:00 +17°C° 0.1 mm 3 mps 751 mmHg 70%
    23:00 +17°C° 0 mm 3 mps 751 mmHg 69%

    Day after tomorrow, 9 June, Tuesday

    Time Temperature Precipitation Wind Pressure Humidity
    00:00 +17°C° 0 mm 3 mps 751 mmHg 68%
    01:00 +17°C° 0 mm 4 mps 751 mmHg 68%
    02:00 +17°C° 0 mm 4 mps 752 mmHg 66%
    03:00 +17°C° 0 mm 5 mps 752 mmHg 64%
    04:00 +17°C° 0 mm 5 mps 752 mmHg 63%
    05:00 +17°C° 0 mm 6 mps 753 mmHg 63%
    06:00 +19°C° 0 mm 6 mps 753 mmHg 64%
    07:00 +19°C° 0 mm 6 mps 753 mmHg 64%
    08:00 +21°C° 0 mm 6 mps 753 mmHg 60%
    09:00 +22°C° 0 mm 7 mps 754 mmHg 56%
    10:00 +24°C° 0 mm 8 mps 754 mmHg 52%
    11:00 +26°C° 0 mm 7 mps 754 mmHg 48%
    12:00 +27°C° 0 mm 7 mps 754 mmHg 45%
    13:00 +28°C° 0 mm 7 mps 754 mmHg 41%
    14:00 +28°C° 0 mm 7 mps 754 mmHg 42%
    15:00 +28°C° 0 mm 6 mps 754 mmHg 43%
    16:00 +28°C° 0 mm 6 mps 754 mmHg 44%
    17:00 +27°C° 0 mm 6 mps 754 mmHg 49%
    18:00 +26°C° 0 mm 5 mps 754 mmHg 55%
    19:00 +25°C° 0 mm 5 mps 754 mmHg 60%
    20:00 +23°C° 0 mm 5 mps 754 mmHg 60%
    21:00 +22°C° 0 mm 5 mps 754 mmHg 60%
    22:00 +21°C° 0 mm 6 mps 754 mmHg 60%
    23:00 +21°C° 0 mm 6 mps 754 mmHg 58%

    10 June, Wednesday

    Time Temperature Precipitation Wind Pressure Humidity
    00:00 +20°C° 0 mm 5 mps 754 mmHg 57%
    01:00 +20°C° 0 mm 5 mps 754 mmHg 56%
    02:00 +19°C° 0 mm 5 mps 754 mmHg 58%
    03:00 +18°C° 0 mm 4 mps 754 mmHg 59%
    04:00 +18°C° 0 mm 4 mps 754 mmHg 61%
    05:00 +19°C° 0 mm 4 mps 755 mmHg 62%
    06:00 +20°C° 0 mm 5 mps 755 mmHg 63%
    07:00 +20°C° 0 mm 5 mps 755 mmHg 64%
    08:00 +22°C° 0 mm 5 mps 755 mmHg 62%
    09:00 +23°C° 0 mm 5 mps 755 mmHg 59%
    10:00 +25°C° 0 mm 5 mps 755 mmHg 57%
    11:00 +25°C° 0 mm 5 mps 755 mmHg 56%
    12:00 +26°C° 0 mm 4 mps 755 mmHg 56%
    13:00 +26°C° 0 mm 4 mps 755 mmHg 55%
    14:00 +27°C° 0 mm 4 mps 755 mmHg 53%
    15:00 +27°C° 0 mm 4 mps 755 mmHg 50%
    16:00 +28°C° 0 mm 5 mps 755 mmHg 48%
    17:00 +27°C° 0 mm 4 mps 755 mmHg 52%
    18:00 +27°C° 0 mm 2 mps 754 mmHg 56%
    19:00 +26°C° 0 mm 1 mps 754 mmHg 60%
    20:00 +25°C° 0 mm 2 mps 754 mmHg 59%
    21:00 +22°C° 0 mm 3 mps 754 mmHg 58%
    22:00 +21°C° 0 mm 3 mps 754 mmHg 56%
    23:00 +21°C° 0 mm 4 mps 754 mmHg 56%

    11 June, Thursday

    Time Temperature Precipitation Wind Pressure Humidity
    00:00 +21°C° 0 mm 4 mps 754 mmHg 56%
    01:00 +21°C° 0 mm 4 mps 754 mmHg 56%
    02:00 +20°C° 0 mm 4 mps 754 mmHg 56%
    03:00 +20°C° 0 mm 4 mps 754 mmHg 57%
    04:00 +20°C° 0 mm 4 mps 754 mmHg 58%
    05:00 +20°C° 0 mm 4 mps 754 mmHg 60%
    06:00 +21°C° 0 mm 4 mps 754 mmHg 63%
    07:00 +21°C° 0 mm 4 mps 754 mmHg 65%
    08:00 +23°C° 0 mm 5 mps 754 mmHg 62%
    09:00 +26°C° 0 mm 5 mps 754 mmHg 58%
    10:00 +27°C° 0 mm 6 mps 754 mmHg 55%
    11:00 +29°C° 0 mm 6 mps 753 mmHg 51%
    12:00 +30°C° 0 mm 5 mps 753 mmHg 47%
    13:00 +32°C° 0 mm 5 mps 753 mmHg 43%
    14:00 +32°C° 0 mm 5 mps 753 mmHg 43%
    15:00 +32°C° 0 mm 5 mps 752 mmHg 42%
    16:00 +32°C° 0 mm 5 mps 752 mmHg 42%
    17:00 +30°C° 0 mm 4 mps 752 mmHg 47%
    18:00 +29°C° 0 mm 3 mps 752 mmHg 52%
    19:00 +28°C° 0 mm 3 mps 751 mmHg 56%
    20:00 +27°C° 0 mm 3 mps 751 mmHg 55%
    21:00 +26°C° 0 mm 3 mps 751 mmHg 53%
    22:00 +25°C° 0 mm 3 mps 751 mmHg 51%
    23:00 +24°C° 0 mm 3 mps 751 mmHg 51%

    12 June, Friday

    Time Temperature Precipitation Wind Pressure Humidity
    00:00 +23°C° 0 mm 2 mps 750 mmHg 51%
    01:00 +23°C° 0 mm 2 mps 750 mmHg 51%
    02:00 +21°C° 0.1 mm 2 mps 750 mmHg 53%
    03:00 +21°C° 0.1 mm 2 mps 750 mmHg 54%
    04:00 +20°C° 0.1 mm 2 mps 750 mmHg 56%
    05:00 +21°C° 0.4 mm 2 mps 750 mmHg 58%
    06:00 +23°C° 0.4 mm 1 mps 749 mmHg 60%
    07:00 +23°C° 0.4 mm 1 mps 749 mmHg 63%
    08:00 +25°C° 0 mm 2 mps 749 mmHg 61%
    09:00 +26°C° 0 mm 2 mps 749 mmHg 58%
    10:00 +27°C° 0 mm 3 mps 749 mmHg 56%
    11:00 +28°C° 0 mm 3 mps 749 mmHg 52%
    12:00 +30°C° 0 mm 3 mps 749 mmHg 47%
    13:00 +31°C° 0 mm 3 mps 749 mmHg 43%
    14:00 +31°C° 0 mm 3 mps 748 mmHg 42%
    15:00 +31°C° 0 mm 3 mps 748 mmHg 41%
    16:00 +31°C° 0 mm 3 mps 748 mmHg 41%
    17:00 +31°C° 0 mm 3 mps 747 mmHg 46%
    18:00 +30°C° 0 mm 2 mps 747 mmHg 51%
    19:00 +29°C° 0 mm 1 mps 746 mmHg 55%
    20:00 +26°C° 0.8 mm 2 mps 746 mmHg 60%
    21:00 +22°C° 0.8 mm 3 mps 746 mmHg 65%
    22:00 +20°C° 0.8 mm 4 mps 746 mmHg 70%
    23:00 +20°C° 0.2 mm 3 mps 746 mmHg 66%
    Show more